CCA4580 RJFF-ZSPD

Flight info

Callsign CCA4580
Flight time 1h 16m
Altitude 34000
Route SGE OLE Y40 FUE Y60 POTET A593 LAMEN/K0917F340 A593 AKARA/K0917S1035 A593 DUMET DUM91A
Aircraft A346/H-SDE2E3FGHIJ3J4J5M1RWXY/LB1D1

Departure

Time 2026-04-30 07:16
Airport Fukuoka Airport (RJFF)

Arrival

Time 2026-04-30 08:32
Airport Shanghai Pudong International Airport (ZSPD)
Time Latitude Longitude Altitude Speed Heading
2026-04-30 06:53 33.58632 130.44481 50 ft 0 kts 240°
2026-04-30 07:05 33.58639 130.44496 50 ft 2 kts 240°
2026-04-30 07:05 33.58643 130.44507 50 ft 2 kts 239°
2026-04-30 07:05 33.58652 130.44522 50 ft 2 kts 230°
2026-04-30 07:06 33.58663 130.44536 50 ft 2 kts 220°
2026-04-30 07:06 33.58675 130.44547 50 ft 2 kts 212°
2026-04-30 07:06 33.58688 130.44556 50 ft 2 kts 204°
2026-04-30 07:06 33.58702 130.44562 50 ft 2 kts 195°
2026-04-30 07:07 33.58717 130.44566 50 ft 2 kts 187°
2026-04-30 07:07 33.58733 130.44568 50 ft 2 kts 179°
2026-04-30 07:07 33.58748 130.44566 50 ft 2 kts 171°
2026-04-30 07:07 33.58763 130.44562 50 ft 2 kts 162°
2026-04-30 07:08 33.58779 130.44554 50 ft 2 kts 153°
2026-04-30 07:08 33.58786 130.44551 50 ft 0 kts 149°
2026-04-30 07:10 33.58777 130.44557 50 ft 3 kts 150°
2026-04-30 07:11 33.58744 130.44575 50 ft 7 kts 154°
2026-04-30 07:11 33.58688 130.44609 50 ft 10 kts 152°
2026-04-30 07:11 33.58612 130.44658 50 ft 13 kts 149°
2026-04-30 07:11 33.58525 130.44719 50 ft 14 kts 150°
2026-04-30 07:12 33.58434 130.44781 50 ft 15 kts 150°
2026-04-30 07:12 33.58094 130.45013 50 ft 20 kts 150°
2026-04-30 07:13 33.57963 130.45103 50 ft 22 kts 150°
2026-04-30 07:13 33.57822 130.45200 50 ft 23 kts 150°
2026-04-30 07:13 33.57704 130.45279 50 ft 11 kts 150°
2026-04-30 07:14 33.57656 130.45311 50 ft 0 kts 150°
2026-04-30 07:14 33.57643 130.45320 50 ft 3 kts 150°
2026-04-30 07:14 33.57619 130.45351 50 ft 5 kts 107°
2026-04-30 07:14 33.57634 130.45410 50 ft 9 kts 59°
2026-04-30 07:15 33.57687 130.45430 50 ft 10 kts 337°
2026-04-30 07:15 33.57894 130.45293 50 ft 76 kts 330°
2026-04-30 07:15 33.58602 130.44800 50 ft 155 kts 332°
2026-04-30 07:15 33.59666 130.44061 424 ft 186 kts 332°
2026-04-30 07:16 33.60795 130.43277 1295 ft 191 kts 332°
2026-04-30 07:16 33.61943 130.42479 2255 ft 194 kts 332°
2026-04-30 07:16 33.63113 130.41684 3213 ft 195 kts 337°
2026-04-30 07:16 33.64445 130.41461 4088 ft 199 kts
2026-04-30 07:17 33.65772 130.42131 4750 ft 218 kts 36°
2026-04-30 07:17 33.66739 130.43655 5338 ft 237 kts 68°
2026-04-30 07:17 33.65904 130.47694 6325 ft 279 kts 140°
2026-04-30 07:18 33.64119 130.48662 7092 ft 283 kts 174°
2026-04-30 07:18 33.62102 130.48601 7997 ft 283 kts 187°
2026-04-30 07:18 33.60112 130.48326 8835 ft 286 kts 187°
2026-04-30 07:18 33.58088 130.48390 9621 ft 291 kts 163°
2026-04-30 07:19 33.56313 130.49637 10405 ft 296 kts 137°
2026-04-30 07:19 33.54819 130.51468 10933 ft 310 kts 133°
2026-04-30 07:19 33.53283 130.53438 11353 ft 328 kts 134°
2026-04-30 07:19 33.51597 130.55469 11763 ft 347 kts 136°
2026-04-30 07:20 33.49788 130.57529 12151 ft 365 kts 137°
2026-04-30 07:20 33.47899 130.59615 12535 ft 382 kts 138°
2026-04-30 07:20 33.45878 130.61821 13196 ft 390 kts 138°
2026-04-30 07:20 33.43706 130.63751 13943 ft 393 kts 154°
2026-04-30 07:21 33.41103 130.64781 14700 ft 394 kts 173°
2026-04-30 07:21 33.38376 130.64789 15423 ft 394 kts 191°
2026-04-30 07:21 33.35745 130.63785 16139 ft 395 kts 208°
2026-04-30 07:21 33.33528 130.61896 16845 ft 395 kts 226°
2026-04-30 07:22 33.30838 130.56247 18276 ft 397 kts 249°
2026-04-30 07:22 33.29729 130.53220 18972 ft 400 kts 244°
2026-04-30 07:22 33.28351 130.50259 19648 ft 404 kts 239°
2026-04-30 07:23 33.26787 130.47426 20316 ft 408 kts 236°
2026-04-30 07:23 33.25097 130.44653 20969 ft 412 kts 234°
2026-04-30 07:23 33.23323 130.41898 21608 ft 415 kts 234°
2026-04-30 07:23 33.21535 130.39195 22218 ft 418 kts 233°
2026-04-30 07:24 33.19690 130.36446 22827 ft 421 kts 233°
2026-04-30 07:24 33.17847 130.33714 23387 ft 425 kts 233°
2026-04-30 07:24 33.15983 130.30957 23933 ft 428 kts 233°
2026-04-30 07:24 33.14115 130.28177 24487 ft 431 kts 234°
2026-04-30 07:25 33.12268 130.25337 25033 ft 433 kts 235°
2026-04-30 07:25 33.10413 130.22455 25558 ft 437 kts 235°
2026-04-30 07:25 33.08573 130.19594 26040 ft 440 kts 235°
2026-04-30 07:25 33.06685 130.16667 26516 ft 444 kts 234°
2026-04-30 07:26 33.04787 130.13734 26959 ft 448 kts 234°
2026-04-30 07:26 33.02872 130.10779 27381 ft 452 kts 234°
2026-04-30 07:26 33.00933 130.07793 27797 ft 456 kts 234°
2026-04-30 07:26 32.99003 130.04825 28207 ft 460 kts 234°
2026-04-30 07:27 32.97010 130.01761 28614 ft 464 kts 234°
2026-04-30 07:27 32.95052 129.98679 29138 ft 463 kts 236°
2026-04-30 07:27 32.93289 129.95489 29720 ft 461 kts 240°
2026-04-30 07:27 32.91728 129.92166 30310 ft 459 kts 245°
2026-04-30 07:28 32.90374 129.88711 30891 ft 456 kts 249°
2026-04-30 07:28 32.89251 129.85204 31448 ft 454 kts 253°
2026-04-30 07:28 32.88352 129.81647 31983 ft 452 kts 256°
2026-04-30 07:28 32.87563 129.78024 32480 ft 451 kts 257°
2026-04-30 07:29 32.86783 129.74356 32892 ft 452 kts 257°
2026-04-30 07:29 32.86013 129.70726 33251 ft 454 kts 257°
2026-04-30 07:29 32.85234 129.67068 33605 ft 455 kts 257°
2026-04-30 07:29 32.84462 129.63460 33851 ft 457 kts 257°
2026-04-30 07:30 32.82081 129.52347 33867 ft 458 kts 257°
2026-04-30 07:31 32.80486 129.44939 33872 ft 458 kts 257°
2026-04-30 07:31 32.78896 129.37578 33880 ft 458 kts 257°
2026-04-30 07:32 32.77288 129.30165 33888 ft 458 kts 257°
2026-04-30 07:32 32.75674 129.22746 33892 ft 458 kts 257°
2026-04-30 07:33 32.74063 129.15372 33893 ft 458 kts 257°
2026-04-30 07:33 32.72435 129.07953 33894 ft 458 kts 257°
2026-04-30 07:34 32.70811 129.00560 33894 ft 457 kts 257°
2026-04-30 07:34 32.69186 128.93190 33894 ft 457 kts 257°
2026-04-30 07:35 32.67564 128.85864 33894 ft 456 kts 256°
2026-04-30 07:35 32.65965 128.78499 33894 ft 456 kts 257°
2026-04-30 07:36 32.64433 128.71162 33894 ft 456 kts 257°
2026-04-30 07:36 32.62894 128.63823 33894 ft 456 kts 257°
2026-04-30 07:37 32.61344 128.56477 33893 ft 456 kts 257°
2026-04-30 07:37 32.59795 128.49171 33893 ft 456 kts 257°
2026-04-30 07:38 32.58233 128.41829 33893 ft 456 kts 257°
2026-04-30 07:38 32.56663 128.34471 33894 ft 456 kts 257°
2026-04-30 07:39 32.55094 128.27142 33894 ft 456 kts 257°
2026-04-30 07:39 32.53522 128.19823 33893 ft 456 kts 257°
2026-04-30 07:40 32.51946 128.12506 33893 ft 456 kts 257°
2026-04-30 07:40 32.50353 128.05131 33893 ft 456 kts 257°
2026-04-30 07:41 32.48762 127.97786 33893 ft 456 kts 257°
2026-04-30 07:41 32.47181 127.90514 33893 ft 456 kts 257°
2026-04-30 07:42 32.45584 127.83192 33893 ft 456 kts 257°
2026-04-30 07:42 32.43984 127.75870 33893 ft 456 kts 257°
2026-04-30 07:43 32.42388 127.68597 33894 ft 457 kts 257°
2026-04-30 07:43 32.40774 127.61258 33897 ft 456 kts 257°
2026-04-30 07:44 32.39160 127.53945 33909 ft 456 kts 257°
2026-04-30 07:44 32.37556 127.46697 33922 ft 456 kts 257°
2026-04-30 07:45 32.35934 127.39390 33932 ft 456 kts 257°
2026-04-30 07:45 32.34310 127.32096 33945 ft 456 kts 256°
2026-04-30 07:46 32.32688 127.24838 33964 ft 456 kts 256°
2026-04-30 07:46 32.31049 127.17517 33992 ft 456 kts 256°
2026-04-30 07:47 32.29426 127.10299 34015 ft 455 kts 256°
2026-04-30 07:47 32.27797 127.03055 34025 ft 454 kts 256°
2026-04-30 07:48 32.26207 126.95812 34029 ft 453 kts 256°
2026-04-30 07:48 32.24614 126.88554 34029 ft 453 kts 256°
2026-04-30 07:49 32.23018 126.81321 34029 ft 453 kts 256°
2026-04-30 07:49 32.21417 126.74089 34029 ft 453 kts 256°
2026-04-30 07:50 32.19810 126.66866 34028 ft 453 kts 256°
2026-04-30 07:50 32.18236 126.59643 34030 ft 453 kts 257°
2026-04-30 07:51 32.16674 126.52376 34029 ft 453 kts 257°
2026-04-30 07:51 32.15120 126.45190 34030 ft 453 kts 257°
2026-04-30 07:52 32.13544 126.37940 34029 ft 453 kts 257°
2026-04-30 07:52 32.11967 126.30708 34031 ft 453 kts 256°
2026-04-30 07:53 32.10376 126.23437 34030 ft 453 kts 256°
2026-04-30 07:53 32.08791 126.16213 34029 ft 453 kts 256°
2026-04-30 07:54 32.07209 126.09029 34030 ft 453 kts 256°
2026-04-30 07:54 32.05630 126.01791 34028 ft 453 kts 257°
2026-04-30 07:55 32.04082 125.94546 34029 ft 453 kts 257°
2026-04-30 07:55 32.02531 125.87325 34030 ft 453 kts 257°
2026-04-30 07:56 32.00972 125.80112 34029 ft 453 kts 257°
2026-04-30 07:56 31.99400 125.72925 34030 ft 453 kts 256°
2026-04-30 07:57 31.97801 125.65721 34029 ft 453 kts 256°
2026-04-30 07:57 31.96192 125.58497 34030 ft 453 kts 256°
2026-04-30 07:58 31.94589 125.51313 34030 ft 453 kts 256°
2026-04-30 07:58 31.92971 125.44083 34030 ft 453 kts 256°
2026-04-30 07:59 31.91351 125.36866 34030 ft 453 kts 256°
2026-04-30 07:59 31.89726 125.29651 34030 ft 453 kts 256°
2026-04-30 08:00 31.87295 125.18893 34030 ft 453 kts 256°
2026-04-30 08:00 31.85661 125.11692 34029 ft 453 kts 256°
2026-04-30 08:01 31.84024 125.04493 34029 ft 453 kts 256°
2026-04-30 08:01 31.82406 124.97319 34030 ft 452 kts 256°
2026-04-30 08:02 31.80087 124.86562 34030 ft 450 kts 256°
2026-04-30 08:03 31.76983 124.72260 34029 ft 449 kts 256°
2026-04-30 08:04 31.75421 124.65092 34029 ft 449 kts 256°
2026-04-30 08:04 31.73869 124.57994 34029 ft 449 kts 256°
2026-04-30 08:05 31.72294 124.50814 34030 ft 449 kts 256°
2026-04-30 08:05 31.70724 124.43690 34038 ft 449 kts 256°
2026-04-30 08:06 31.69148 124.36552 34051 ft 449 kts 256°
2026-04-30 08:06 31.67563 124.29396 34067 ft 449 kts 255°
2026-04-30 08:07 31.65986 124.22302 34077 ft 449 kts 255°
2026-04-30 08:07 31.64406 124.15221 34082 ft 449 kts 256°
2026-04-30 08:08 31.62808 124.08071 34084 ft 449 kts 256°
2026-04-30 08:08 31.61220 124.00978 34084 ft 449 kts 256°
2026-04-30 08:09 31.59654 123.93856 34084 ft 450 kts 256°
2026-04-30 08:09 31.58113 123.86777 34084 ft 450 kts 256°
2026-04-30 08:10 31.56546 123.79618 34084 ft 449 kts 256°
2026-04-30 08:10 31.54990 123.72549 34084 ft 449 kts 256°
2026-04-30 08:11 31.53412 123.65400 34084 ft 450 kts 256°
2026-04-30 08:11 31.51842 123.58309 34084 ft 449 kts 256°
2026-04-30 08:11 31.51056 123.54768 33931 ft 445 kts 256°
2026-04-30 08:12 31.50280 123.51271 33358 ft 444 kts 256°
2026-04-30 08:12 31.49579 123.47764 32714 ft 443 kts 258°
2026-04-30 08:12 31.48916 123.44264 32096 ft 443 kts 258°
2026-04-30 08:12 31.48246 123.40720 31397 ft 444 kts 257°
2026-04-30 08:13 31.47575 123.37180 30634 ft 447 kts 257°
2026-04-30 08:13 31.46902 123.33632 29848 ft 450 kts 257°
2026-04-30 08:13 31.46214 123.30017 29043 ft 452 kts 257°
2026-04-30 08:13 31.45530 123.26428 28237 ft 455 kts 257°
2026-04-30 08:14 31.44835 123.22794 27634 ft 452 kts 257°
2026-04-30 08:14 31.44147 123.19197 27129 ft 447 kts 256°
2026-04-30 08:14 31.43475 123.15690 26598 ft 444 kts 256°
2026-04-30 08:14 31.42799 123.12170 26038 ft 440 kts 256°
2026-04-30 08:15 31.42132 123.08698 25475 ft 438 kts 256°
2026-04-30 08:15 31.41468 123.05241 24902 ft 435 kts 256°
2026-04-30 08:15 31.40801 123.01777 24319 ft 433 kts 256°
2026-04-30 08:15 31.40146 122.98387 23743 ft 430 kts 256°
2026-04-30 08:16 31.39486 122.94979 23155 ft 429 kts 255°
2026-04-30 08:16 31.38828 122.91589 22562 ft 427 kts 255°
2026-04-30 08:16 31.38175 122.88232 21968 ft 425 kts 255°
2026-04-30 08:16 31.37519 122.84866 21373 ft 424 kts 255°
2026-04-30 08:17 31.36856 122.81520 20801 ft 421 kts 253°
2026-04-30 08:17 31.35774 122.78343 20203 ft 416 kts 239°
2026-04-30 08:17 31.34097 122.75650 19640 ft 411 kts 225°
2026-04-30 08:17 31.31991 122.73422 19104 ft 406 kts 219°
2026-04-30 08:18 31.29826 122.71322 18557 ft 404 kts 218°
2026-04-30 08:18 31.27684 122.69266 18005 ft 402 kts 218°
2026-04-30 08:18 31.25544 122.67206 17463 ft 400 kts 218°
2026-04-30 08:18 31.23395 122.65128 16922 ft 397 kts 218°
2026-04-30 08:19 31.21297 122.63095 16392 ft 395 kts 219°
2026-04-30 08:19 31.19178 122.61038 15856 ft 393 kts 219°
2026-04-30 08:19 31.17086 122.59007 15328 ft 390 kts 219°
2026-04-30 08:19 31.15023 122.57005 14810 ft 388 kts 219°
2026-04-30 08:20 31.12933 122.54977 14279 ft 386 kts 219°
2026-04-30 08:20 31.10881 122.52986 13758 ft 384 kts 219°
2026-04-30 08:20 31.08840 122.51011 13231 ft 382 kts 219°
2026-04-30 08:20 31.06826 122.49062 12659 ft 381 kts 219°
2026-04-30 08:21 31.04789 122.47089 12110 ft 379 kts 219°
2026-04-30 08:21 31.02764 122.45130 11586 ft 377 kts 219°
2026-04-30 08:21 31.00799 122.43142 11065 ft 375 kts 224°
2026-04-30 08:21 30.99075 122.40846 10591 ft 371 kts 232°
2026-04-30 08:22 30.97617 122.38404 10355 ft 361 kts 235°
2026-04-30 08:22 30.96255 122.36016 10250 ft 347 kts 235°
2026-04-30 08:22 30.94940 122.33706 10145 ft 334 kts 234°
2026-04-30 08:22 30.93672 122.31494 10045 ft 322 kts 234°
2026-04-30 08:23 30.92440 122.29357 9803 ft 315 kts 234°
2026-04-30 08:23 30.91228 122.27263 9521 ft 309 kts 234°
2026-04-30 08:23 30.90032 122.25214 9240 ft 302 kts 235°
2026-04-30 08:23 30.88872 122.23214 8961 ft 295 kts 236°
2026-04-30 08:24 30.87718 122.21221 8693 ft 288 kts 236°
2026-04-30 08:24 30.86743 122.19176 8415 ft 282 kts 253°
2026-04-30 08:24 30.86576 122.16894 8002 ft 282 kts 276°
2026-04-30 08:24 30.86954 122.14660 7592 ft 282 kts 282°
2026-04-30 08:25 30.87439 122.12448 7171 ft 282 kts 284°
2026-04-30 08:25 30.87940 122.10239 6774 ft 281 kts 284°
2026-04-30 08:25 30.88439 122.08023 6371 ft 280 kts 284°
2026-04-30 08:25 30.88926 122.05842 5955 ft 280 kts 284°
2026-04-30 08:26 30.89410 122.03638 5484 ft 279 kts 284°
2026-04-30 08:26 30.89874 122.01494 4988 ft 269 kts 284°
2026-04-30 08:26 30.90319 121.99394 4528 ft 260 kts 284°
2026-04-30 08:26 30.90738 121.97376 4079 ft 253 kts 284°
2026-04-30 08:27 30.91141 121.95394 3678 ft 255 kts 284°
2026-04-30 08:27 30.91535 121.93387 3182 ft 256 kts 284°
2026-04-30 08:27 30.92110 121.91465 2700 ft 248 kts 308°
2026-04-30 08:27 30.93357 121.90159 2240 ft 237 kts 335°
2026-04-30 08:28 30.94834 121.89482 2007 ft 222 kts 345°
2026-04-30 08:28 30.96252 121.89008 2030 ft 201 kts 346°
2026-04-30 08:28 30.97541 121.88575 1998 ft 182 kts 346°
2026-04-30 08:28 30.98729 121.88153 1992 ft 178 kts 345°
2026-04-30 08:29 30.99920 121.87714 1999 ft 178 kts 345°
2026-04-30 08:29 31.01106 121.87266 2001 ft 178 kts 344°
2026-04-30 08:29 31.02262 121.86825 1992 ft 170 kts 344°
2026-04-30 08:29 31.03328 121.86415 1943 ft 154 kts 345°
2026-04-30 08:30 31.04332 121.86034 1758 ft 152 kts 345°
2026-04-30 08:30 31.05341 121.85651 1555 ft 150 kts 345°
2026-04-30 08:30 31.06331 121.85276 1357 ft 150 kts 345°
2026-04-30 08:30 31.07317 121.84903 1160 ft 149 kts 344°
2026-04-30 08:31 31.08308 121.84527 961 ft 148 kts 344°
2026-04-30 08:31 31.09291 121.84154 764 ft 147 kts 344°
2026-04-30 08:31 31.10261 121.83791 573 ft 147 kts 345°
2026-04-30 08:31 31.11242 121.83432 371 ft 146 kts 344°
2026-04-30 08:32 31.12215 121.83067 173 ft 145 kts 343°
2026-04-30 08:32 31.13160 121.82695 34 ft 135 kts 343°
2026-04-30 08:32 31.13915 121.82413 30 ft 89 kts 344°
2026-04-30 08:32 31.14323 121.82235 30 ft 36 kts 324°
2026-04-30 08:33 31.14426 121.82124 30 ft 16 kts 315°
2026-04-30 08:33 31.14511 121.82022 30 ft 17 kts 314°
2026-04-30 08:33 31.14612 121.81938 30 ft 18 kts 338°
2026-04-30 08:33 31.14738 121.81892 30 ft 19 kts 342°
2026-04-30 08:34 31.14842 121.81852 30 ft 12 kts 342°
2026-04-30 08:34 31.14915 121.81825 30 ft 10 kts 342°
2026-04-30 08:34 31.14993 121.81795 30 ft 13 kts 342°
2026-04-30 08:34 31.15089 121.81758 30 ft 15 kts 342°
2026-04-30 08:35 31.15197 121.81716 30 ft 17 kts 337°
2026-04-30 08:35 31.15300 121.81638 30 ft 18 kts 322°
2026-04-30 08:35 31.15415 121.81572 30 ft 19 kts 341°
2026-04-30 08:35 31.15501 121.81516 30 ft 9 kts 302°
2026-04-30 08:36 31.15502 121.81440 30 ft 10 kts 250°
2026-04-30 08:36 31.15474 121.81346 30 ft 13 kts 250°
2026-04-30 08:36 31.15439 121.81233 30 ft 15 kts 251°
2026-04-30 08:36 31.15402 121.81104 30 ft 17 kts 252°
2026-04-30 08:37 31.15365 121.80971 30 ft 14 kts 251°
2026-04-30 08:37 31.15349 121.80889 30 ft 9 kts 285°
2026-04-30 08:37 31.15366 121.80841 30 ft 4 kts 288°
2026-04-30 08:37 31.15365 121.80791 30 ft 8 kts 257°
2026-04-30 08:38 31.15353 121.80741 30 ft 3 kts 253°
2026-04-30 08:38 31.15352 121.80738 30 ft 0 kts 253°